Simultaneous Nadir Overpasses (SNOs) Predictions

Prediction of SNOs between GOES-17 and METOP-C Satellite Orbit:

Table of predicted SNOs for the next 14.0 days since TLE Epoch: 1/8/2022
Index Date Time (GOES-17) GOES-17 Lat,Lon METOP-C Lat,Lon Distance(km) Time Diff (sec)
1 01/10/2022 06:41:48 -0.00,-137.21 -0.01,-137.27 6.91 80
2 01/12/2022 18:40:00 -0.01,-137.19 -0.07,-136.83 41.20 80
3 01/14/2022 06:59:02 0.02,-137.17 -0.91,-141.44 485.37 80
4 01/15/2022 06:35:43 0.02,-137.16 0.18,-136.44 82.38 80
5 01/16/2022 18:54:33 -0.01,-137.14 0.88,-140.98 438.83 80
6 01/17/2022 18:36:35 -0.01,-137.12 -0.28,-136.00 128.63 80
7 01/19/2022 06:52:56 0.00,-137.09 -0.77,-140.59 398.84 80
8 01/20/2022 06:34:56 0.00,-137.07 0.33,-135.60 168.19 80
9 01/21/2022 18:51:08 -0.00,-137.04 0.67,-140.16 354.12 80
